{"data":{"norad_id":56911,"epoch":"2026-09-20T16:38:26.883744Z","epoch_age_seconds":100882,"freshness":"FRESH","line1":"1 56911U 23083AM  26263.69336671 -.00000024  00000+0  86525-5 0  9995","line2":"2 56911  43.0030  49.2123 0001241 260.5544  99.5167 15.27577010181629","mean_motion":15.2757701,"eccentricity":0.0001241,"inclination_deg":43.003,"raan_deg":49.2123,"arg_perigee_deg":260.5544,"mean_anomaly_deg":99.5167,"bstar":8.6525e-6,"rev_number":18162,"period_min":94.266933226496,"perigee_km":482.2065748843,"apogee_km":483.90952349551,"semimajor_km":6861.1950491899,"source":"CELESTRAK","updated_at":"2026-09-21T09:00:33.527032Z"}}